Simultaneous Nadir Overpasses (SNOs) Predictions

Prediction of SNOs between GOES-17 and NOAA-20 Satellite Orbit:

Table of predicted SNOs for the next 14.0 days since TLE Epoch: 11/19/2022
Index Date Time (GOES-17) GOES-17 Lat,Lon NOAA-20 Lat,Lon Distance(km) Time Diff (sec)
1 11/20/2022 10:49:22 0.00,-137.33 0.90,-141.34 456.69 80
2 11/21/2022 10:33:17 0.01,-137.32 -0.11,-136.80 59.55 80
3 11/23/2022 22:33:47 -0.01,-137.30 -0.06,-137.57 30.17 80
4 11/24/2022 22:17:41 -0.01,-137.29 0.95,-133.03 485.17 80
5 11/26/2022 10:36:48 0.01,-137.26 0.26,-138.29 117.58 80
6 11/27/2022 10:18:02 0.01,-137.24 -0.75,-133.75 397.13 80
7 11/28/2022 22:39:58 -0.00,-137.21 -0.41,-139.06 210.26 80
8 11/29/2022 22:23:52 0.00,-137.19 0.60,-134.52 304.32 80
9 12/01/2022 10:45:38 -0.00,-137.16 0.60,-139.78 298.89 80
10 12/02/2022 10:24:13 -0.00,-137.14 -0.41,-135.25 215.61 80
